Time,TemperatureF,DewpointF,PressureIn,WindDirection,WindDirectionDegrees,WindSpeedMPH,WindSpeedGustMPH,Humidity,HourlyPrecipIn,Conditions,Clouds,dailyrainin,SoftwareType,DateUTC
2016-07-25 00:08:00,76.6,75.0,29.89,SSE,155,0.0,0.0,94,0.00,,,0.00,weatherlink.com 1.10,2016-07-25 04:08:00,
2016-07-25 00:23:00,76.5,75.0,29.89,SSE,155,0.0,0.0,94,0.00,,,0.00,weatherlink.com 1.10,2016-07-25 04:23:00,
2016-07-25 00:38:00,76.4,75.0,29.89,SSE,155,0.0,0.0,94,0.00,,,0.00,weatherlink.com 1.10,2016-07-25 04:38:00,
2016-07-25 00:53:00,76.4,75.0,29.89,SSE,155,0.0,0.0,94,0.00,,,0.00,weatherlink.com 1.10,2016-07-25 04:53:00,
2016-07-25 01:08:00,76.2,74.0,29.90,SSE,155,0.0,0.0,94,0.00,,,0.00,weatherlink.com 1.10,2016-07-25 05:08:00,
2016-07-25 01:23:00,76.2,74.0,29.90,SSE,155,0.0,0.0,94,0.00,,,0.00,weatherlink.com 1.10,2016-07-25 05:23:00,
2016-07-25 01:38:00,76.1,74.0,29.90,SSE,155,0.0,0.0,94,0.00,,,0.00,weatherlink.com 1.10,2016-07-25 05:38:00,
2016-07-25 01:53:00,76.2,74.0,29.91,SSE,155,0.0,0.0,94,0.00,,,0.00,weatherlink.com 1.10,2016-07-25 05:53:00,
2016-07-25 02:08:00,76.2,74.0,29.91,SSE,155,0.0,0.0,94,0.00,,,0.00,weatherlink.com 1.10,2016-07-25 06:08:00,
2016-07-25 02:23:00,76.4,75.0,29.91,SSE,155,0.0,0.0,94,0.00,,,0.00,weatherlink.com 1.10,2016-07-25 06:23:00,
2016-07-25 02:38:00,76.5,75.0,29.91,SSE,155,0.0,0.0,94,0.00,,,0.00,weatherlink.com 1.10,2016-07-25 06:38:00,
2016-07-25 02:53:00,76.4,75.0,29.91,SSE,155,0.0,0.0,94,0.00,,,0.00,weatherlink.com 1.10,2016-07-25 06:53:00,
2016-07-25 03:08:00,76.1,74.0,29.91,SSE,155,0.0,0.0,93,0.00,,,0.00,weatherlink.com 1.10,2016-07-25 07:08:00,
2016-07-25 03:24:00,75.6,74.0,29.91,SSE,155,0.0,0.0,93,0.00,,,0.00,weatherlink.com 1.10,2016-07-25 07:24:00,
2016-07-25 03:38:00,75.4,73.0,29.91,SSE,155,0.0,0.0,93,0.00,,,0.00,weatherlink.com 1.10,2016-07-25 07:38:00,
2016-07-25 03:54:00,75.3,74.0,29.91,SSE,155,0.0,0.0,94,0.00,,,0.00,weatherlink.com 1.10,2016-07-25 07:54:00,
2016-07-25 04:09:00,75.1,73.0,29.90,SSE,155,0.0,0.0,94,0.00,,,0.00,weatherlink.com 1.10,2016-07-25 08:09:00,
2016-07-25 04:24:00,75.5,74.0,29.90,SSE,155,0.0,0.0,94,0.00,,,0.00,weatherlink.com 1.10,2016-07-25 08:24:00,
2016-07-25 04:39:00,75.6,74.0,29.89,SSE,155,0.0,2.0,94,0.00,,,0.00,weatherlink.com 1.10,2016-07-25 08:39:00,
2016-07-25 04:54:00,75.7,74.0,29.89,SSE,155,0.0,0.0,94,0.00,,,0.00,weatherlink.com 1.10,2016-07-25 08:54:00,
2016-07-25 05:09:00,75.7,74.0,29.89,SSE,155,0.0,0.0,94,0.00,,,0.00,weatherlink.com 1.10,2016-07-25 09:09:00,
2016-07-25 05:24:00,75.8,74.0,29.89,SSE,155,0.0,1.0,94,0.00,,,0.00,weatherlink.com 1.10,2016-07-25 09:24:00,
2016-07-25 05:39:00,75.9,74.0,29.89,SW,217,0.0,1.0,94,0.00,,,0.00,weatherlink.com 1.10,2016-07-25 09:39:00,
2016-07-25 05:54:00,76.1,74.0,29.89,SW,217,0.0,2.0,94,0.00,,,0.00,weatherlink.com 1.10,2016-07-25 09:54:00,
2016-07-25 06:09:00,76.2,74.0,29.89,SW,217,0.0,4.0,94,0.00,,,0.00,weatherlink.com 1.10,2016-07-25 10:09:00,
2016-07-25 06:24:00,76.4,75.0,29.89,SW,217,2.0,4.0,94,0.00,,,0.00,weatherlink.com 1.10,2016-07-25 10:24:00,
2016-07-25 06:39:00,76.5,75.0,29.90,SW,218,0.0,3.0,94,0.00,,,0.00,weatherlink.com 1.10,2016-07-25 10:39:00,
2016-07-25 06:54:00,76.6,75.0,29.90,SW,218,2.0,2.0,94,0.00,,,0.00,weatherlink.com 1.10,2016-07-25 10:54:00,
2016-07-25 07:09:00,76.6,75.0,29.90,SW,218,0.0,1.0,94,0.00,,,0.00,weatherlink.com 1.10,2016-07-25 11:09:00,
2016-07-25 07:24:00,76.8,75.0,29.91,SW,218,0.0,2.0,94,0.00,,,0.00,weatherlink.com 1.10,2016-07-25 11:24:00,
2016-07-25 07:39:00,77.1,75.0,29.91,SW,218,0.0,2.0,94,0.00,,,0.00,weatherlink.com 1.10,2016-07-25 11:39:00,
2016-07-25 07:54:00,78.0,76.0,29.91,SW,218,0.0,1.0,94,0.00,,,0.00,weatherlink.com 1.10,2016-07-25 11:54:00,
2016-07-25 08:09:00,78.7,77.0,29.92,SW,218,0.0,3.0,93,0.00,,,0.00,weatherlink.com 1.10,2016-07-25 12:09:00,
2016-07-25 08:24:00,79.3,77.0,29.91,WNW,283,5.0,6.0,91,0.00,,,0.00,weatherlink.com 1.10,2016-07-25 12:24:00,
2016-07-25 08:39:00,80.0,77.0,29.91,West,279,2.0,5.0,90,0.00,,,0.00,weatherlink.com 1.10,2016-07-25 12:39:00,
2016-07-25 08:54:00,80.3,77.0,29.91,West,269,0.0,4.0,89,0.00,,,0.00,weatherlink.com 1.10,2016-07-25 12:54:00,
2016-07-25 09:09:00,80.8,77.0,29.90,West,264,2.0,5.0,88,0.00,,,0.00,weatherlink.com 1.10,2016-07-25 13:09:00,
2016-07-25 09:24:00,81.6,77.0,29.90,West,263,0.0,3.0,87,0.00,,,0.00,weatherlink.com 1.10,2016-07-25 13:24:00,
2016-07-25 09:39:00,82.4,77.0,29.91,NW,311,0.0,6.0,83,0.00,,,0.00,weatherlink.com 1.10,2016-07-25 13:39:00,
2016-07-25 09:54:00,83.3,75.0,29.91,NW,308,4.0,4.0,76,0.00,,,0.00,weatherlink.com 1.10,2016-07-25 13:54:00,
2016-07-25 10:09:00,84.1,75.0,29.91,WNW,296,4.0,5.0,75,0.00,,,0.00,weatherlink.com 1.10,2016-07-25 14:09:00,
2016-07-25 10:24:00,85.0,74.0,29.92,North,351,5.0,7.0,70,0.00,,,0.00,weatherlink.com 1.10,2016-07-25 14:24:00,
2016-07-25 10:39:00,85.5,74.0,29.92,NNW,342,6.0,9.0,68,0.00,,,0.00,weatherlink.com 1.10,2016-07-25 14:39:00,
2016-07-25 10:54:00,85.1,74.0,29.93,NNW,348,4.0,9.0,69,0.00,,,0.00,weatherlink.com 1.10,2016-07-25 14:54:00,
2016-07-25 11:10:00,85.9,71.0,29.92,NNW,331,6.0,9.0,61,0.00,,,0.00,weatherlink.com 1.10,2016-07-25 15:10:00,
2016-07-25 11:24:00,86.2,70.0,29.92,NNE,32,7.0,8.0,59,0.00,,,0.00,weatherlink.com 1.10,2016-07-25 15:24:00,
2016-07-25 11:39:00,86.5,71.0,29.93,NNE,19,4.0,7.0,61,0.00,,,0.00,weatherlink.com 1.10,2016-07-25 15:39:00,
2016-07-25 11:54:00,85.9,71.0,29.93,North,10,3.0,8.0,61,0.00,,,0.00,weatherlink.com 1.10,2016-07-25 15:54:00,
2016-07-25 12:09:00,86.4,71.0,29.92,NW,312,1.0,6.0,61,0.00,,,0.00,weatherlink.com 1.10,2016-07-25 16:09:00,
2016-07-25 12:24:00,86.1,71.0,29.93,NW,322,2.0,6.0,60,0.00,,,0.00,weatherlink.com 1.10,2016-07-25 16:24:00,
2016-07-25 12:39:00,86.8,71.0,29.93,NW,304,1.0,7.0,60,0.00,,,0.00,weatherlink.com 1.10,2016-07-25 16:39:00,
2016-07-25 12:54:00,87.5,72.0,29.93,NNW,327,1.0,9.0,61,0.00,,,0.00,weatherlink.com 1.10,2016-07-25 16:54:00,
2016-07-25 13:09:00,87.4,72.0,29.92,NNW,335,5.0,9.0,60,0.00,,,0.00,weatherlink.com 1.10,2016-07-25 17:09:00,
2016-07-25 13:24:00,87.9,71.0,29.92,NNE,13,5.0,8.0,58,0.00,,,0.00,weatherlink.com 1.10,2016-07-25 17:24:00,
2016-07-25 13:39:00,88.5,72.0,29.91,NNW,343,6.0,10.0,58,0.00,,,0.00,weatherlink.com 1.10,2016-07-25 17:39:00,
2016-07-25 13:54:00,89.1,71.0,29.91,North,355,4.0,9.0,56,0.00,,,0.00,weatherlink.com 1.10,2016-07-25 17:54:00,
2016-07-25 14:10:00,89.1,73.0,29.90,NNW,340,4.0,7.0,59,0.00,,,0.00,weatherlink.com 1.10,2016-07-25 18:10:00,
2016-07-25 14:25:00,89.0,72.0,29.90,NNW,336,4.0,8.0,58,0.00,,,0.00,weatherlink.com 1.10,2016-07-25 18:25:00,
2016-07-25 14:40:00,89.1,74.0,29.90,NW,322,6.0,12.0,62,0.00,,,0.00,weatherlink.com 1.10,2016-07-25 18:40:00,
2016-07-25 14:55:00,88.8,74.0,29.89,NNW,343,5.0,10.0,61,0.00,,,0.00,weatherlink.com 1.10,2016-07-25 18:55:00,
2016-07-25 15:10:00,88.6,73.0,29.89,North,349,6.0,11.0,61,0.00,,,0.00,weatherlink.com 1.10,2016-07-25 19:10:00,
2016-07-25 15:25:00,88.8,73.0,29.89,NW,325,12.0,12.0,60,0.00,,,0.00,weatherlink.com 1.10,2016-07-25 19:25:00,
2016-07-25 15:40:00,89.5,72.0,29.88,NW,326,10.0,10.0,57,0.00,,,0.00,weatherlink.com 1.10,2016-07-25 19:40:00,
2016-07-25 15:55:00,89.6,70.0,29.88,NNW,327,6.0,12.0,53,0.00,,,0.00,weatherlink.com 1.10,2016-07-25 19:55:00,
2016-07-25 16:10:00,89.7,70.0,29.87,NNW,333,2.0,11.0,53,0.00,,,0.00,weatherlink.com 1.10,2016-07-25 20:10:00,
2016-07-25 16:25:00,89.8,72.0,29.87,NNW,328,6.0,13.0,55,0.00,,,0.00,weatherlink.com 1.10,2016-07-25 20:25:00,
2016-07-25 16:40:00,89.1,69.0,29.88,NNW,331,5.0,14.0,51,0.00,,,0.00,weatherlink.com 1.10,2016-07-25 20:40:00,
2016-07-25 16:55:00,89.5,68.0,29.87,North,351,5.0,10.0,49,0.00,,,0.00,weatherlink.com 1.10,2016-07-25 20:55:00,
2016-07-25 17:10:00,89.2,70.0,29.87,NNW,344,6.0,11.0,54,0.00,,,0.00,weatherlink.com 1.10,2016-07-25 21:10:00,
2016-07-25 17:25:00,89.5,70.0,29.88,North,5,0.0,13.0,53,0.00,,,0.00,weatherlink.com 1.10,2016-07-25 21:25:00,
2016-07-25 17:40:00,89.5,71.0,29.87,North,355,1.0,11.0,54,0.00,,,0.00,weatherlink.com 1.10,2016-07-25 21:40:00,
2016-07-25 17:55:00,89.6,71.0,29.87,North,355,3.0,9.0,54,0.00,,,0.00,weatherlink.com 1.10,2016-07-25 21:55:00,
2016-07-25 18:10:00,89.1,69.0,29.87,NNW,333,8.0,13.0,51,0.00,,,0.00,weatherlink.com 1.10,2016-07-25 22:10:00,
2016-07-25 18:25:00,89.5,68.0,29.87,NW,325,4.0,11.0,50,0.00,,,0.00,weatherlink.com 1.10,2016-07-25 22:25:00,
2016-07-25 18:40:00,89.5,68.0,29.88,NNW,348,7.0,10.0,50,0.00,,,0.00,weatherlink.com 1.10,2016-07-25 22:40:00,
2016-07-25 18:55:00,89.7,70.0,29.88,NW,325,4.0,9.0,53,0.00,,,0.00,weatherlink.com 1.10,2016-07-25 22:55:00,
2016-07-25 19:10:00,89.2,71.0,29.88,North,355,1.0,6.0,56,0.00,,,0.00,weatherlink.com 1.10,2016-07-25 23:10:00,
2016-07-25 19:25:00,88.1,71.0,29.87,NNW,348,1.0,9.0,58,0.00,,,0.00,weatherlink.com 1.10,2016-07-25 23:25:00,